Mitchell, SD

6:39 PM CDT on October 21, 2019 (GMT -0500)
Mitchell Municipal

Weather History for KMHE - August, 2019

Change the Weather History Date:

Sunday, August 11, 2019

  Actual Average Record
Temperature  
Mean Temperature 74 °F 73 °F  
Max Temperature 83 °F 84 °F 103 °F (1936)
Min Temperature 64 °F 62 °F 37 °F (1902)
Degree Days  
Heating Degree Days 0 0  
Month to date heating degree days 0 0  
Since 1 June heating degree days 16 40  
Since 1 July heating degree days 0 5  
Cooling Degree Days 9 8  
Month to date cooling degree days 103 95  
Year to date cooling degree days 683 613  
Since 1 June cooling degree days 664 573  
Growing Degree Days 23 (Base 50)    
Moisture  
Dew Point 65 °F    
Average Humidity 74    
Maximum Humidity 93    
Minimum Humidity 55    
Precipitation  
Precipitation 0.00 in 0.09 in 4.66 in (1953)
Month to date precipitation 1.40 0.85  
Year to date precipitation 22.32 14.82  
Snow  
Snow 0.00 in - 0.00 in ()
Month to date snowfall 0.0  
Since 1 June snowfall 0.0  
Since 1 July snowfall 0.0  
Snow Depth 0.00 in    
Sea Level Pressure  
Sea Level Pressure 29.97 in    
Wind  
Wind Speed 7 mph (NE)    
Max Wind Speed 15 mph    
Max Gust Speed 20 mph    
Visibility 7 miles    
Events Fog    
T = Trace of Precipitation, MM = Missing Value Source: NWS Daily Summary

Daily Weather History Graph

Daily Weather History Graph

Search for Another Location

Airport or City:

Astronomy

Aug. 11, 2019 Rise Set
Actual Time 6:31 AM CDT 8:42 PM CDT
Civil Twilight 6:00 AM CDT 9:13 PM CDT
Nautical Twilight 5:21 AM CDT 9:52 PM CDT
Astronomical Twilight 4:37 AM CDT 10:35 PM CDT
Moon 6:27 PM CDT (8/11) 2:49 AM CDT (8/11)
Length of Visible Light 15h 13m
Length of Day
14h 10m
Waxing Gibbous, 87% of the Moon is Illuminated
Aug 11
Waxing Gibbous
Aug 15
Full
Aug 23
Last Quarter
Aug 30
New
Sep 5
First Quarter

Hourly Weather History & Observations

Time (CDT) Temp. Heat Index Dew Point Humidity Pressure Visibility Wind Dir Wind Speed Gust Speed Precip Events Conditions
12:53 AM 68.0 °F - 66.0 °F 93% 29.95 in 8.0 mi North 5.8 mph - N/A   Scattered Clouds
1:53 AM 68.0 °F - 64.9 °F 90% 29.96 in 10.0 mi North 5.8 mph - N/A   Clear
2:53 AM 66.0 °F - 63.0 °F 90% 29.97 in 8.0 mi North 3.5 mph - N/A   Clear
3:53 AM 66.0 °F - 63.0 °F 90% 29.96 in 7.0 mi North 5.8 mph - N/A   Clear
4:53 AM 64.9 °F - 63.0 °F 93% 29.96 in 5.0 mi NW 4.6 mph - N/A   Clear
5:53 AM 64.0 °F - 63.0 °F 96% 29.96 in 5.0 mi WNW 4.6 mph - N/A   Clear
6:01 AM 64.0 °F - 62.1 °F 93% 29.99 in 4.0 mi NW 5.8 mph - N/A   Scattered Clouds
6:09 AM 64.9 °F - 63.0 °F 93% 29.99 in 3.0 mi NW 6.9 mph - N/A   Mostly Cloudy
6:16 AM 64.9 °F - 63.0 °F 93% 29.99 in 1.5 mi NNW 5.8 mph - N/A   Mostly Cloudy
6:25 AM 64.9 °F - 63.0 °F 93% 29.98 in 0.2 mi NNW 5.8 mph - N/A Fog Fog
6:53 AM 66.9 °F - 64.9 °F 93% 29.95 in 0.2 mi North 6.9 mph - N/A Fog Fog
7:53 AM 66.9 °F - 64.9 °F 93% 29.96 in 0.2 mi NNE 10.4 mph - N/A Fog Fog
8:20 AM 66.9 °F - 66.0 °F 97% 29.99 in 0.5 mi NE 6.9 mph - N/A Fog Fog
8:29 AM 68.0 °F - 66.0 °F 93% 30.00 in 2.0 mi ENE 8.1 mph - N/A   Overcast
8:42 AM 68.0 °F - 66.0 °F 93% 30.01 in 5.0 mi NE 15.0 mph 19.6 mph N/A   Overcast
8:53 AM 68.0 °F - 64.9 °F 90% 30.01 in 6.0 mi East 10.4 mph - N/A   Overcast
9:07 AM 68.0 °F - 66.0 °F 93% 30.02 in 6.0 mi ENE 6.9 mph - N/A   Overcast
9:53 AM 68.0 °F - 66.0 °F 93% 30.01 in 5.0 mi ENE 5.8 mph - N/A   Overcast
10:50 AM 71.6 °F - 66.2 °F 83% 30.04 in 10.0 mi ESE 6.9 mph - N/A   Mostly Cloudy
10:53 AM 72.0 °F - 66.0 °F 81% 30.03 in 10.0 mi East 4.6 mph - N/A   Mostly Cloudy
11:53 AM 73.0 °F - 66.0 °F 79% 30.03 in 10.0 mi South 4.6 mph - N/A   Overcast
12:53 PM 75.9 °F - 66.9 °F 74% 30.02 in 10.0 mi Variable 4.6 mph - N/A   Overcast
1:41 PM 78.1 °F - 66.0 °F 66% 30.03 in 10.0 mi Variable 5.8 mph - N/A   Overcast
1:53 PM 78.1 °F - 66.0 °F 66% 30.00 in 10.0 mi Variable 4.6 mph - N/A   Mostly Cloudy
2:53 PM 81.0 °F 83.0 °F 66.0 °F 60% 29.97 in 10.0 mi Variable 4.6 mph - N/A   Partly Cloudy
3:53 PM 81.0 °F 83.0 °F 66.0 °F 60% 29.97 in 10.0 mi North 8.1 mph - N/A   Clear
4:53 PM 82.0 °F 83.8 °F 64.9 °F 56% 29.95 in 10.0 mi East 9.2 mph - N/A   Clear
5:53 PM 81.0 °F 83.0 °F 66.0 °F 60% 29.91 in 10.0 mi East 9.2 mph - N/A   Clear
6:53 PM 81.0 °F 83.3 °F 66.9 °F 62% 29.88 in 10.0 mi East 8.1 mph - N/A   Clear
7:53 PM 77.0 °F - 68.0 °F 74% 29.89 in 10.0 mi East 8.1 mph - N/A   Clear
8:53 PM 73.9 °F - 66.9 °F 79% 29.90 in 10.0 mi ENE 5.8 mph - N/A   Clear
9:53 PM 73.0 °F - 66.9 °F 81% 29.91 in 10.0 mi East 8.1 mph - N/A   Mostly Cloudy
10:26 PM 72.0 °F - 66.9 °F 84% 29.94 in 10.0 mi ESE 4.6 mph - N/A   Mostly Cloudy
10:53 PM 72.0 °F - 66.9 °F 84% 29.90 in 10.0 mi ESE 8.1 mph - N/A   Partly Cloudy
11:53 PM 72.0 °F - 66.9 °F 84% 29.88 in 10.0 mi ESE 11.5 mph - N/A   Partly Cloudy